Regional Weather Roundup
Issued by NWS Kansas City/Pleasant Hill, MO

Home | Current Version | Previous Version | Graphics & Text | Print | Product List | Glossary Off
Versions: 1 2 3 4 5 6 7 8 9 10 11 12 13 14 15 16 17 18 19 20 21 22 23 24 25 26 27 28 29 30 31 32 33 34 35 36 37 38 39 40 41 42 43 44 45 46 47 48 49 50

509
ASUS43 KEAX 220210
RWREAX

WEATHER ROUNDUP FOR EASTERN KANSAS AND NORTHWEST MISSOURI
NATIONAL WEATHER SERVICE KANSAS CITY/PLEASANT HILL MO
900 PM CDT SAT APR 21 2018

KSZ040-057-103>105-MOZ028-029-037-043-220300-
...KANSAS CITY METROPOLITAN AREA...

CITY           SKY/WX    TMP DP  RH WIND       PRES   REMARKS
K.C. INTL      CLOUDY    58  28  32 E12       30.14R
K.C. DOWNTOWN  CLOUDY    61  28  28 E13G22    30.12R
LEES SUMMIT    CLOUDY    59  29  31 E14G23    30.14R
OLATHE - IXD   CLOUDY    60  36  40 E6        30.12R
OLATHE - OJC   CLOUDY    59  35  40 E9        30.12R
LAWRENCE       CLOUDY    51  43  74 W7        30.12R

$$

MOZ001>008-011>017-020>025-030>033-038>040-044>046-053-054-220300-
...NORTHERN AND CENTRAL MISSOURI...

CITY           SKY/WX    TMP DP  RH WIND       PRES   REMARKS
ST. JOSEPH     CLOUDY    58  30  34 NE14      30.17R
MOSBY          CLOUDY    59  27  29 E10       30.15S
WARRENSBURG    CLOUDY    59  30  33 NE10      30.13R
WHITEMAN AFB   PTCLDY    58  29  33 E9        30.09R
CLINTON        CLOUDY    59  32  36 E6        30.12R
SEDALIA        CLOUDY    60  31  33 E10       30.14R
WARSAW         NOT AVBL
CHILLICOTHE      N/A     57  29  34 E7G17     30.19S
KIRKSVILLE     MOCLDY    54  31  41 E9        30.22R

$$

MOZ041-047>049-056>058-063>065-088>090-097-220300-
...EASTERN AND SOUTHERN MISSOURI...

CITY           SKY/WX    TMP DP  RH WIND       PRES   REMARKS
ST. LOUIS INTL CLOUDY    60  34  37 E10       30.21R
SPIRIT OF STL  CLOUDY    61  34  36 NE12      30.19R
COLUMBIA       CLOUDY    60  31  33 E16G25    30.13F
JEFFERSON CITY CLOUDY    63  30  28 E16G25    30.12S
ROLLA          MOCLDY    60  34  37 E9G18     30.14R
OSAGE BEACH    CLOUDY    62  35  36 E13       30.11R
SPRINGFIELD    LGT RAIN  57  46  66 SE10G17   30.08R
BRANSON        CLOUDY    57  46  67 CALM      30.07R
JOPLIN         CLOUDY    52  52 100 N5        30.10R
WEST PLAINS    CLOUDY    63  33  32 E8        30.09S

$$

IAZ060-094-KSZ022-034>040-054-083-096-NEZ052-066-093-220300-
...KANSAS...SOUTHEAST NEBRASKA AND IOWA...

CITY           SKY/WX    TMP DP  RH WIND       PRES   REMARKS
TOPEKA         CLOUDY    50  44  80 W6        30.13S
MANHATTAN      LGT RAIN  47  43  86 N6        30.18S
EMPORIA        LGT RAIN  44  42  93 NW8       30.14S FOG
CHANUTE        LGT RAIN  47  45  93 N9        30.11S
WICHITA        LGT RAIN  46  45  96 N10       30.14R
OMAHA          CLOUDY    53  31  42 NE12      30.24S
LINCOLN        CLOUDY    49  36  61 NE5       30.22F
FALLS CITY     CLOUDY    53  34  48 NE10      30.17S
LAMONI         CLOUDY    52  29  41 NE7       30.22R
DES MOINES     CLOUDY    55  27  34 E16       30.27S

$$





USA.gov is the U.S. government's official web portal to all federal, state and local government web resources and services.